{"data":{"norad_id":45159,"intl_designator":"2020-008AE","name":"ONEWEB-0056","alt_names":[],"object_type":"PAYLOAD","status":"ACTIVE","operator":null,"country":"UK","launch_date":"2020-02-06","launch_site_code":"TYMSC","launch_vehicle":null,"mission":null,"orbit_class":"UNKNOWN","rcs_meters":null,"size_class":null,"mass_kg":null,"dimensions":null,"purposes":["comms"],"wikipedia_slug":null,"has_3d_model":false,"image_url":null,"decayed_at":null,"tle_current":{"epoch":"2026-09-20T02:51:20.590848Z","epoch_age_seconds":51170,"freshness":"FRESH","line1":"1 45159U 20008AE  26263.11898832 -.00000607  00000+0 -17741-2 0  9999","line2":"2 45159  87.8914  17.3684 0001516 107.7476 252.3817 13.10372259320610","mean_motion":13.10372259,"eccentricity":0.0001516,"inclination_deg":87.8914,"raan_deg":17.3684,"arg_perigee_deg":107.7476,"mean_anomaly_deg":252.3817,"bstar":-0.0017741,"rev_number":32061,"period_min":109.8924362989,"perigee_km":1220.5671700743,"apogee_km":1222.871446507,"semimajor_km":7599.8563082907,"source":"CELESTRAK","updated_at":"2026-09-20T09:00:44.550488Z"}}}